CW4541 Weather Reports


time (UTC)temp
F
wind
direction
speed
knots
gust
knots
rain 1hr
in
rain 24hr
in
rain mn
in
humidity
%
barometer
mb
20260906230606 75 15 5.2 12.2 0.00 0.00 0.00 19 1018.2
20260906230112 75 15 6.1 11.3 0.00 0.00 0.00 18 1018.1
20260906220606 82 190 1.7 11.3 0.00 0.00 0.00 15 1017.8
20260906220111 83 218 0.9 11.3 0.00 0.00 0.00 15 1017.9
20260906210606 83 244 1.7 7.0 0.00 0.00 0.00 16 1018.6
20260906210112 81 176 0.9 6.1 0.00 0.00 0.00 16 1018.6
20260906200606 81 180 1.7 7.0 0.00 0.00 0.00 15 1019.2
20260906200113 83 191 1.7 7.0 0.00 0.00 0.00 13 1019.3
20260906190606 81 266 1.7 8.7 0.00 0.00 0.00 15 1019.9
20260906180606 78 205 0.9 7.0 0.00 0.00 0.00 18 1021.0
20260906180111 77 154 0.0 5.2 0.00 0.00 0.00 18 1021.1
20260906170111 76 253 0.9 5.2 0.00 0.00 0.00 18 1021.8
20260906160606 71 20 0.9 4.3 0.00 0.00 0.00 16 1022.2
20260906160111 70 12 0.9 4.3 0.00 0.00 0.00 17 1022.2
20260906150606 66 13 0.9 4.3 0.00 0.00 0.00 20 1022.1
20260906150111 64 12 0.0 4.3 0.00 0.00 0.00 22 1022.1
20260906140606 61 197 0.0 0.9 0.00 0.00 0.00 27 1022.1
20260906140112 60 197 0.0 0.9 0.00 0.00 0.00 27 1022.1
20260906130605 56 219 0.0 0.0 0.00 0.00 0.00 29 1022.1
20260906130111 56 219 0.0 0.0 0.00 0.00 0.00 28 1022.2
20260906120605 55 107 0.0 0.0 0.00 0.00 0.00 29 1021.6
20260906120111 54 109 0.0 0.0 0.00 0.00 0.00 28 1021.6
20260906110605 53 123 0.0 0.0 0.00 0.00 0.00 31 1021.4
20260906110111 53 118 0.0 0.0 0.00 0.00 0.00 31 1021.4
20260906100606 54 102 0.0 0.0 0.00 0.00 0.00 30 1021.0
20260906100111 54 89 0.0 0.0 0.00 0.00 0.00 30 1021.0
20260906090605 56 92 0.0 0.0 0.00 0.00 0.00 28 1021.1
20260906090110 56 87 0.0 0.0 0.00 0.00 0.00 28 1021.1
20260906080605 57 101 0.0 0.0 0.00 0.00 0.00 23 1021.6
20260906080111 57 91 0.0 0.0 0.00 0.00 0.00 23 1021.6
20260906070605 57 97 0.0 0.0 0.00 0.00 0.00 21 1021.8
20260906070110 57 94 0.0 0.0 0.00 0.00 0.00 21 1021.8
20260906060605 56 99 0.0 0.0 0.00 0.00 0.00 24 1022.1
20260906060112 56 104 0.0 0.0 0.00 0.00 0.00 24 1022.1
20260906050606 56 122 0.0 0.0 0.00 0.00 0.00 29 1022.0
20260906050112 56 110 0.0 0.0 0.00 0.00 0.00 28 1021.9
20260906040607 59 21 0.0 0.9 0.00 0.00 0.00 26 1022.0
20260906040112 59 21 0.0 0.0 0.00 0.00 0.00 26 1021.9
20260906030606 62 19 0.0 0.9 0.00 0.00 0.00 20 1021.3
20260906030113 62 20 0.0 0.9 0.00 0.00 0.00 20 1021.1
20260906020607 67 17 0.0 0.0 0.00 0.00 0.00 16 1020.6
20260906020112 68 16 0.0 0.9 0.00 0.00 0.00 15 1020.6
20260906010606 76 13 0.0 4.3 0.00 0.00 0.00 10 1020.6
20260906000606 80 198 0.9 5.2 0.00 0.00 0.00 9 1020.4